Apalachee Bay - Ochlockonee Bay Weather Center

Moon Phase Calendar



Online Cameras

 


      

Current Conditions in Wakulla
9/26/2022 6:29:03 AM

73°F
Feels Like 74
Clouds
Humidity
90%
Pressure
29.88"
Wind
4.8 mph (NW)
Dew Point
70°F
UV Index
0/10 (Low)
Visibility
6 mi

Hourly Forecast

Date & Time Mon, Sep 26
6:00 AM
Mon, Sep 26
7:00 AM
Mon, Sep 26
8:00 AM
Mon, Sep 26
9:00 AM
Mon, Sep 26
10:00 AM
Mon, Sep 26
11:00 AM
Mon, Sep 26
12:00 PM
Mon, Sep 26
1:00 PM
Mon, Sep 26
2:00 PM
Mon, Sep 26
3:00 PM
Mon, Sep 26
4:00 PM
Mon, Sep 26
5:00 PM
Mon, Sep 26
6:00 PM
Mon, Sep 26
7:00 PM
Mon, Sep 26
8:00 PM
Mon, Sep 26
9:00 PM
Mon, Sep 26
10:00 PM
Mon, Sep 26
11:00 PM
Tue, Sep 27
12:00 AM
Tue, Sep 27
1:00 AM
Tue, Sep 27
2:00 AM
Tue, Sep 27
3:00 AM
Tue, Sep 27
4:00 AM
Tue, Sep 27
5:00 AM
Tue, Sep 27
6:00 AM
Tue, Sep 27
7:00 AM
Tue, Sep 27
8:00 AM
Tue, Sep 27
9:00 AM
Tue, Sep 27
10:00 AM
Tue, Sep 27
11:00 AM
Tue, Sep 27
12:00 PM
Tue, Sep 27
1:00 PM
Tue, Sep 27
2:00 PM
Tue, Sep 27
3:00 PM
Tue, Sep 27
4:00 PM
Tue, Sep 27
5:00 PM
Tue, Sep 27
6:00 PM
Tue, Sep 27
7:00 PM
Tue, Sep 27
8:00 PM
Tue, Sep 27
9:00 PM
Tue, Sep 27
10:00 PM
Tue, Sep 27
11:00 PM
Wed, Sep 28
12:00 AM
Wed, Sep 28
1:00 AM
Wed, Sep 28
2:00 AM
Wed, Sep 28
3:00 AM
Wed, Sep 28
4:00 AM
Wed, Sep 28
5:00 AM
Condition
Clouds

Clouds

Clouds

Clouds

Clouds

Clouds

Clouds

Clouds

Clouds

Clear

Clear

Clear

Clear

Clear

Clear

Clear

Clouds

Clouds

Clouds

Clouds

Clouds

Clouds

Clouds

Clouds

Clouds

Clouds

Clouds

Clouds

Clouds

Clouds

Clouds

Clouds

Clouds

Clouds

Clouds

Clouds

Clouds

Clouds

Clouds

Clouds

Clouds

Clouds

Clouds

Clouds

Clouds

Clouds

Clouds

Clouds
Temperature 73°F73°F74°F75°F78°F81°F83°F84°F84°F85°F86°F86°F85°F82°F81°F81°F81°F80°F80°F80°F79°F77°F75°F74°F73°F73°F72°F73°F74°F77°F79°F81°F83°F84°F85°F84°F83°F81°F79°F78°F78°F77°F77°F76°F75°F73°F72°F72°F
Feels Like 74°F74°F75°F76°F78°F83°F85°F86°F87°F87°F88°F89°F88°F86°F85°F85°F85°F84°F80°F80°F79°F77°F75°F73°F73°F72°F71°F72°F73°F76°F79°F80°F82°F83°F84°F84°F83°F81°F79°F77°F77°F76°F76°F75°F74°F73°F71°F71°F
Cloudiness 96%94%92%90%90%67%51%41%34%0%0%1%1%1%0%0%44%63%72%78%81%100%100%100%100%100%100%100%100%100%98%98%99%100%100%100%100%100%100%100%100%100%100%100%100%100%100%100%
Visibility 6 mi6 mi6 mi6 mi6 mi6 mi6 mi6 mi6 mi6 mi6 mi6 mi6 mi6 mi6 mi6 mi6 mi6 mi6 mi6 mi6 mi6 mi6 mi6 mi6 mi6 mi6 mi6 mi6 mi6 mi6 mi6 mi6 mi6 mi6 mi6 mi6 mi6 mi6 mi6 mi6 mi6 mi6 mi6 mi6 mi6 mi6 mi6 mi
Precipitation 0%0%0%0%0%0%0%0%0%0%0%0%0%0%0%0%0%0%3%3%3%5%5%0%0%0%0%0%0%0%0%0%0%0%0%0%0%0%0%0%0%0%0%0%0%0%1%5%
Humidity 90%87%84%78%69%59%56%55%55%54%53%54%57%66%71%74%75%73%66%56%48%46%46%46%46%47%48%48%46%42%39%37%37%39%39%40%41%43%41%36%31%30%31%35%41%44%43%43%
Dew Point 70°F69°F69°F68°F67°F65°F65°F66°F66°F66°F66°F67°F67°F70°F71°F72°F72°F71°F68°F63°F57°F55°F53°F52°F52°F51°F52°F52°F52°F52°F52°F53°F54°F56°F57°F57°F57°F56°F54°F49°F45°F43°F43°F46°F49°F50°F49°F48°F
Pressure 29.88"29.88"29.88"29.91"29.91"29.94"29.91"29.91"29.88"29.85"29.83"29.83"29.83"29.83"29.85"29.88"29.88"29.88"29.91"29.88"29.88"29.88"29.88"29.88"29.91"29.91"29.91"29.94"29.94"29.97"29.97"29.94"29.94"29.91"29.88"29.88"29.88"29.91"29.94"29.94"29.94"29.94"29.94"29.94"29.94"29.94"29.91"29.91"
Wind Speed 4.8 mph3.6 mph3.1 mph3.2 mph3.3 mph2.2 mph0.1 mph2.4 mph4.6 mph5.8 mph5.4 mph6.1 mph8.8 mph11.3 mph9.8 mph8.2 mph7.7 mph7.6 mph9 mph11.5 mph12.4 mph14 mph15.5 mph15.7 mph14.7 mph13.9 mph13.7 mph13.5 mph15 mph14.9 mph14.8 mph14.2 mph12.7 mph10.7 mph10.1 mph11.4 mph12.1 mph12.5 mph12.1 mph14.6 mph15.7 mph17.5 mph18.6 mph17.4 mph16.2 mph17.2 mph17.6 mph17.2 mph
Wind
Direction
322°
NW
335°
NNW
351°
N

N

N

N
154°
SSE
176°
S
176°
S
181°
S
195°
SSW
218°
SW
223°
SW
222°
SW
236°
SW
247°
WSW
273°
W
288°
WNW
321°
NW
357°
N

N

N
12°
NNE
14°
NNE
22°
NNE
26°
NNE
26°
NNE
28°
NNE
25°
NNE
27°
NNE
26°
NNE
25°
NNE
27°
NNE
27°
NNE
27°
NNE
27°
NNE
24°
NNE
20°
NNE
20°
NNE
20°
NNE
23°
NNE
28°
NNE
33°
NNE
38°
NE
37°
NE
33°
NNE
34°
NE
34°
NE

Daily Forecast

Date High Low Precip. Humidity
Today
Sep 26

Clouds
86 °F
73 °F
0%
55%
Tuesday
Sep 27

Clouds
85 °F
72 °F
5%
37%
Wednesday
Sep 28

Rain
75 °F
66 °F
60%
69%
Thursday
Sep 29

Rain
71 °F
68 °F
100%
73%
Friday
Sep 30

Rain
77 °F
70 °F
100%
87%
Saturday
Oct 1

Rain
70 °F
68 °F
77%
86%
Sunday
Oct 2

Clear
84 °F
66 °F
1%
52%
Monday
Oct 3

Clear
81 °F
68 °F
0%
53%
Tuesday
Oct 4

Clouds
79 °F
66 °F
0%
54%
Wednesday
Oct 5

Clear
81 °F
68 °F
0%
41%
Thursday
Oct 6

Clouds
79 °F
69 °F
0%
47%
Friday
Oct 7

Rain
81 °F
72 °F
30%
56%
Saturday
Oct 8

Rain
79 °F
73 °F
22%
64%
Sunday
Oct 9

Rain
80 °F
75 °F
73%
72%
Monday
Oct 10

Rain
80 °F
73 °F
79%
64%
Tuesday
Oct 11

Clouds
82 °F
75 °F
20%
57%

Temperature 8-14 Day Outlook



Precipitation 8-14 Day Outlook




Quick Links
Apalachee Bay - Ochlockonee Bay News
Apalachee Bay - Ochlockonee Bay Photos
Apalachee Bay - Ochlockonee Bay Videos




About Us
Contact Us
Site Map
Search Site
Advertise With Us
   
Apalachee.USGulf.info
THE APALACHEE BAY - OCHLOCKONEE BAY WEBSITE

Copyright 2022, Coastal Town
Privacy    |    Legal